Погода Усть-Ишим

Погода Усть-Ишим : погода сейчас, прогноз погоды и архив. Всё, что Вы хотите узнать о погоде Усть-Ишим!

Хотите узнать прогноз погоды Усть-Ишим? Тогда Вам сюда: Погода Усть-Ишим

Поиск расширенной информации на нашем сайте:

Полезная информация: Мебельные фасады из мдф профиля как оформить заказ мебельные фасады на заказ.

Другие новости

Новости СМИ2

Главная страница сайта

Новости сайта

03.07.2017

Напоминаем, что на нашем специализированном сайте Метеоцентр.Азия вы можете получить высокодетализированные автоматические прогнозы погоды по пунктам России, СНГ и мира в авиационном формате (включающие направление и скорость ветра, видимость, явления погоды, количество и форму облачности, нижнюю и верхнюю границу облачности).

Рекомендуем: Копии часов гесс элитные копии часов.

Погода Усть-Ишим - сегодня

Время (UTC), дата Ветер
(°,м/с) 
Видим.   Явления Облачность Т
(°С)
Тd
(°С)
f(%) Тe
(°С)
Pmin
(гПа)
dP
(гПа)
Po
(мм)
O2
(г/м3)
Тmin Tmax R s Состояние
почвы
18 19.07.18 050 (СВ) 20000 м  {гроза}  10/3 600 м кучево-дожд., средняя, верхняя 
[Cb cap|Ac trans|Ci fib]
+20.6 +14.7 69 +29  1014.7  0.5  756  280           
21 19.07.18 050 (СВ) 20000 м    8/0 средняя, верхняя 
[Ac trans|Ci fib]
+17.3 +13.6 79 +24  1015.4  0.6  757  284           
00 20.07.18 040 (СВ) 50000 м    10/4 600 м средняя, верхняя 
[Sc|Ac trans|Cs]
+16.3 +14.2 87 +24  1016  0.6  757  285           
03 20.07.18 060 (СВ) 50000 м    8/0 средняя, верхняя 
[Ac trans|Ci fib]
+19.3 +15.2 77 +29  1016.2  0.2  757  282  +16.3        сухая 
06 20.07.18 050 (СВ) 50000 м    10/8 600 м средняя, верхняя 
[Cu Sc|Ac cast|Ci fib]
+22.4 +16.3 68 +33  1016.4  0.2  758  279           
09 20.07.18 050 (СВ) 50000 м    9/6 1000 м кучево-дожд., средняя, верхняя 
[Cb cap|Ac cuf|Cs]
+22.6 +15.7 65 +32  1016.2  0.1  757  279           
12 20.07.18 050 (СВ) 50000 м    10/8 1000 м кучево-дожд., средняя, верхняя 
[Cb cap|Ac lent|Ci fib]
+21.3 +13 59 +26  1016.8  0.6  758  281           
15 20.07.18 040 (СВ) 50000 м    10/6 1000 м верхняя 
[Sc|Ci fib]
+19.1 +12 63 +24  1017.2  0.3  758  283    +22.9       
18 20.07.18 050 (СВ) 20000 м    8/8 1000 м 
[Sc]
+17.2 +9.9 62 +18  1017.9  0.7  759  286           
21 20.07.18 030 (СВ) 5{11}  20000 м    6/6 1000 м 
[Sc]
+13.9 +8.6 70 +13  1018.3  0.3  759  289           
00 21.07.18 050 (СВ) 6{10}  50000 м    4/4 1000 м 
[Sc]
+12.7 +8.6 76 +12  1018.6  0.3  759  291           
03 21.07.18 030 (СВ) 5{10}  50000 м    3/3 1000 м 
[Sc]
+15.7 +9.5 67 +15  1018.7  0.2  759  288  +11.8        сухая 
09 21.07.18 030 (СВ) 7{12}  50000 м    8/8 600 м 
[Cu hum]
+18.1 +5.8 44 +18  1018.8  -0.2  759  286           
15 21.07.18 040 (СВ) 4{12}  50000 м    6/6 600 м 
[Sc]
+15.7 +5.4 50 +16  1019  0.3  759  288    +18.9       
18 21.07.18 020 (С) 20000 м    4/4 600 м 
[Sc]
+12.3 +4.5 59 +11  1019.1  759  292           
21 21.07.18 050 (СВ) 20000 м    3/0 верхняя 
[Ci fib]
+10.5 +5.8 73 +9  1019.2  0.1  759  294           
00 22.07.18 010 (С) 50000 м    ясно 
+8.3 +4.9 79 +7  1019.6  0.3  760  296           
06 22.07.18 020 (С) 7-12{13}  50000 м    ясно 
+18 +6.1 46 +18  1017.9  -1.1  758  286           
12 22.07.18 020 (С) 5{11}  50000 м    8/8 600 м 
[Sc diur, vesp]
+19 +6.7 45 +19  1015.8  -1  757  284           
15 22.07.18 360 (С) 4{11}  50000 м    8/3 600 м средняя 
[Sc diur, vesp|Ac lent]
+16.2 +6.4 52 +16  1015.4  -0.4  757  287    +20.7       
18 22.07.18 360 (С) 20000 м    6/3 1000 м средняя 
[Sc|Ac As]
+12.6 +6.8 68 +12  1015.2  -0.3  756  290           
21 22.07.18 010 (С) 20000 м    4/4 600 м 
[Sc]
+10.5 +7.2 80 +10  1014.3  -0.9  756  292           
00 23.07.18 360 (С) н/о    н/о 
+10.8 +7.3 79 +10  1013.2  -1.1  755  291           
03 23.07.18 020 (С) 50000 м    8/0 средняя, верхняя 
[As op|Cs]
+15.9 +9.2 64 +16  1011.7  -1.3  754  285  +9.9        сухая 
06 23.07.18 020 (С) 5{12}  50000 м    8/0 средняя, верхняя 
[Ac As|Ci fib]
+19 +8.4 50 +19  1010  -1.6  753  282           
Время (UTC), дата Ветер
(°,м/с) 
Видим.   Явления Облачность Т
(°С)
Тd
(°С)
f(%) Тe
(°С)
Pmin
(гПа)
dP
(гПа)
Po
(мм)
O2
(г/м3)
Тmin Tmax R s Состояние
почвы

Для получения пояснительной информации подведите курсор к названию столбца.

ПОГОДА Усть-Ишим - архив

Всё, что Вы хотите узнать о погоде Усть-Ишим - удобно и подробно!

Выберите нужную дату (начиная с 1 января 2015* года) и нажмите кнопку "Найти".
Будут отображены архивные сводки погоды по пункту Усть-Ишим, начиная с указанной даты.


Отображать данные в формате CSV (для использования в таблицах Excel)


Внимание! Наш архив погоды предназначен исключительно для личного некоммерческого использования в познавательных целях. Если Вам необходимы официальные справки о состоянии погоды (для производственных, юридических, коммерческих и т.п. целей), обращайтесь в органы Росгидромета.

*Примечание: данная дата относится к архиву по метеостанциям СССР (Россия, СНГ, Балтия).
Архив по метеостанциям Зарубежной Европы и Азии (кроме Китая) хранится 10 дней, по другим регионам земного шара (Китай, Африка, Америка, Австралия, Океания) - 1 день.

Усть-Ишим - район местоположения метеостанции


Название, широта, долгота, высота метеостанции:
Усть-Ишим 57.7°ш. 71.2°д. 56 м над ур. моря [Российская Федерация]

Дополнительная информация

В oтличие oт бoльшинства пoгoдных сайтoв мы публикуем пoдрoбную метеoинфoрмацию в детальнoм прoфессиoнальнoм фoрмате.

Характеристики температуры и влажнoсти вoздуха измеряются на высoте 2 м в тени вдали oт зданий и деревьев.
Скoрoсть ветра измеряется на высoте 10 м (на урoвне рoста челoвека скoрoсть ветра ниже в 1.5-2 раза). Если метеoстанция нахoдится в гoрoде или в лесу, тo скoрoсть ветра занижена на 2-4 м/с пo сравнению с oткрытым местoм. Скoрoсть ветра над акватoриями крупных рек и oзёр, а также на вершинах хoлмoв на 2-5 м/с выше, чем в oбычных услoвиях.
Атмoсфернoе давление в разных тoчках местнoсти мoжет значительнo oтличаться oт давления на метеoстанции, в зависимoсти oт услoвий рельефа (при пoдъёме на 10 м давление пoнижается примернo на 1 мм рт.ст.).